owner,sensor,date,latitude,longitude,air_pressure(mBar),qcFlag 
TABS,ioos:station:wmo:42047:1,2016-10-01T00:00:00Z,27.8966,-93.5973,1017.08,11111222 
TABS,ioos:station:wmo:42047:1,2016-10-01T00:30:00Z,27.8966,-93.5973,1017.33,11111222 
TABS,ioos:station:wmo:42047:1,2016-10-01T01:00:00Z,27.8966,-93.5973,1017.23,11111222 
TABS,ioos:station:wmo:42047:1,2016-10-01T01:30:00Z,27.8966,-93.5973,1017.21,11111222 
TABS,ioos:station:wmo:42047:1,2016-10-01T02:00:00Z,27.8966,-93.5973,1017.09,11111222 
TABS,ioos:station:wmo:42047:1,2016-10-01T02:30:00Z,27.8966,-93.5973,1017.3,11111222 
TABS,ioos:station:wmo:42047:1,2016-10-01T03:00:00Z,27.8966,-93.5973,1017.48,11111222 
TABS,ioos:station:wmo:42047:1,2016-10-01T03:30:00Z,27.8966,-93.5973,1017.78,11111222 
TABS,ioos:station:wmo:42047:1,2016-10-01T04:00:00Z,27.8966,-93.5973,1017.86,11111222 
TABS,ioos:station:wmo:42047:1,2016-10-01T04:30:00Z,27.8966,-93.5973,1017.76,11111222 
TABS,ioos:station:wmo:42047:1,2016-10-01T05:00:00Z,27.8966,-93.5973,1017.59,11111222 
TABS,ioos:station:wmo:42047:1,2016-10-01T05:30:00Z,27.8966,-93.5973,1017.47,11111222 
TABS,ioos:station:wmo:42047:1,2016-10-01T06:00:00Z,27.8966,-93.5973,1017.56,11111222 
TABS,ioos:station:wmo:42047:1,2016-10-01T06:30:00Z,27.8966,-93.5973,1017.41,11111222 
TABS,ioos:station:wmo:42047:1,2016-10-01T07:00:00Z,27.8966,-93.5973,1017.12,11111222 
TABS,ioos:station:wmo:42047:1,2016-10-01T07:30:00Z,27.8966,-93.5973,1017.02,11111222 
TABS,ioos:station:wmo:42047:1,2016-10-01T08:00:00Z,27.8966,-93.5973,1016.78,11111222 
TABS,ioos:station:wmo:42047:1,2016-10-01T08:30:00Z,27.8966,-93.5973,1016.62,11111222 
TABS,ioos:station:wmo:42047:1,2016-10-01T09:00:00Z,27.8966,-93.5973,1016.57,11111222 
TABS,ioos:station:wmo:42047:1,2016-10-01T09:30:00Z,27.8966,-93.5973,1016.56,11111222 
TABS,ioos:station:wmo:42047:1,2016-10-01T10:00:00Z,27.8966,-93.5973,1016.47,11111222 
TABS,ioos:station:wmo:42047:1,2016-10-01T10:30:00Z,27.8966,-93.5973,1016.43,11111222 
TABS,ioos:station:wmo:42047:1,2016-10-01T11:00:00Z,27.8966,-93.5973,1016.59,11111222 
TABS,ioos:station:wmo:42047:1,2016-10-01T11:30:00Z,27.8966,-93.5973,1016.64,11111222 
TABS,ioos:station:wmo:42047:1,2016-10-01T12:00:00Z,27.8966,-93.5973,1016.8,11111222 
TABS,ioos:station:wmo:42047:1,2016-10-01T12:30:00Z,27.8966,-93.5973,1017.19,11111222 
TABS,ioos:station:wmo:42047:1,2016-10-01T13:00:00Z,27.8966,-93.5973,1017.11,11111222 
TABS,ioos:station:wmo:42047:1,2016-10-01T13:30:00Z,27.8966,-93.5973,1017.43,11111222 
TABS,ioos:station:wmo:42047:1,2016-10-01T14:00:00Z,27.8966,-93.5973,1017.5,11111222 
TABS,ioos:station:wmo:42047:1,2016-10-01T14:30:00Z,27.8966,-93.5973,1017.58,11111222 
TABS,ioos:station:wmo:42047:1,2016-10-01T15:00:00Z,27.8966,-93.5973,1017.43,11111222 
TABS,ioos:station:wmo:42047:1,2016-10-01T15:30:00Z,27.8966,-93.5973,1017.46,11111222 
TABS,ioos:station:wmo:42047:1,2016-10-01T16:00:00Z,27.8966,-93.5973,1017.3,11111222 
TABS,ioos:station:wmo:42047:1,2016-10-01T16:30:00Z,27.8966,-93.5973,1017.21,11111222 
TABS,ioos:station:wmo:42047:1,2016-10-01T17:00:00Z,27.8966,-93.5973,1016.91,11111222 
TABS,ioos:station:wmo:42047:1,2016-10-01T17:30:00Z,27.8966,-93.5973,1016.85,11111222 
TABS,ioos:station:wmo:42047:1,2016-10-01T18:00:00Z,27.8966,-93.5973,1016.53,11111222 
TABS,ioos:station:wmo:42047:1,2016-10-01T18:30:00Z,27.8966,-93.5973,1016.26,11111222 
TABS,ioos:station:wmo:42047:1,2016-10-01T19:00:00Z,27.8966,-93.5973,1015.9,11111222 
TABS,ioos:station:wmo:42047:1,2016-10-01T19:30:00Z,27.8966,-93.5973,1015.65,11111222 
TABS,ioos:station:wmo:42047:1,2016-10-01T20:00:00Z,27.8966,-93.5973,1015.25,11111222 
TABS,ioos:station:wmo:42047:1,2016-10-01T20:30:00Z,27.8966,-93.5973,1015.15,11111222 
TABS,ioos:station:wmo:42047:1,2016-10-01T21:00:00Z,27.8966,-93.5973,1014.98,11111222 
TABS,ioos:station:wmo:42047:1,2016-10-01T21:30:00Z,27.8966,-93.5973,1014.86,11111222 
TABS,ioos:station:wmo:42047:1,2016-10-01T22:00:00Z,27.8966,-93.5973,1014.77,11111222 
TABS,ioos:station:wmo:42047:1,2016-10-01T22:30:00Z,27.8966,-93.5973,1014.85,11111222 
TABS,ioos:station:wmo:42047:1,2016-10-01T23:00:00Z,27.8966,-93.5973,1014.88,11111222 
TABS,ioos:station:wmo:42047:1,2016-10-01T23:30:00Z,27.8966,-93.5973,1014.83,11111222 
TABS,ioos:station:wmo:42047:1,2016-10-02T00:00:00Z,27.8966,-93.5973,1014.47,11111222 
TABS,ioos:station:wmo:42047:1,2016-10-02T00:30:00Z,27.8966,-93.5973,1014.45,11111222 
TABS,ioos:station:wmo:42047:1,2016-10-02T01:00:00Z,27.8966,-93.5973,1014.76,11111222 
TABS,ioos:station:wmo:42047:1,2016-10-02T01:30:00Z,27.8966,-93.5973,1014.88,11111222 
TABS,ioos:station:wmo:42047:1,2016-10-02T02:00:00Z,27.8966,-93.5973,1015.23,11111222 
TABS,ioos:station:wmo:42047:1,2016-10-02T02:30:00Z,27.8966,-93.5973,1015.04,11111222 
TABS,ioos:station:wmo:42047:1,2016-10-02T03:00:00Z,27.8966,-93.5973,1015.31,11111222 
TABS,ioos:station:wmo:42047:1,2016-10-02T03:30:00Z,27.8966,-93.5973,1015.53,11111222 
TABS,ioos:station:wmo:42047:1,2016-10-02T04:00:00Z,27.8966,-93.5973,1015.24,11111222 
TABS,ioos:station:wmo:42047:1,2016-10-02T04:30:00Z,27.8966,-93.5973,1015.6,11111222 
TABS,ioos:station:wmo:42047:1,2016-10-02T05:00:00Z,27.8966,-93.5973,1015.58,11111222 
TABS,ioos:station:wmo:42047:1,2016-10-02T05:30:00Z,27.8966,-93.5973,1015.35,11111222 
TABS,ioos:station:wmo:42047:1,2016-10-02T06:00:00Z,27.8966,-93.5973,1015.14,11111222 
TABS,ioos:station:wmo:42047:1,2016-10-02T06:30:00Z,27.8966,-93.5973,1015.04,11111222 
TABS,ioos:station:wmo:42047:1,2016-10-02T07:00:00Z,27.8966,-93.5973,1015.26,11111222 
TABS,ioos:station:wmo:42047:1,2016-10-02T07:30:00Z,27.8966,-93.5973,1015.02,11111222 
TABS,ioos:station:wmo:42047:1,2016-10-02T08:00:00Z,27.8966,-93.5973,1014.8,11111222 
TABS,ioos:station:wmo:42047:1,2016-10-02T08:30:00Z,27.8966,-93.5973,1014.58,11111222 
TABS,ioos:station:wmo:42047:1,2016-10-02T09:00:00Z,27.8966,-93.5973,1014.31,11111222 
TABS,ioos:station:wmo:42047:1,2016-10-02T09:30:00Z,27.8966,-93.5973,1014.42,11111222 
TABS,ioos:station:wmo:42047:1,2016-10-02T10:00:00Z,27.8966,-93.5973,1014.35,11111222 
TABS,ioos:station:wmo:42047:1,2016-10-02T10:30:00Z,27.8966,-93.5973,1014.47,11111222 
TABS,ioos:station:wmo:42047:1,2016-10-02T11:00:00Z,27.8966,-93.5973,1014.39,11111222 
TABS,ioos:station:wmo:42047:1,2016-10-02T11:30:00Z,27.8966,-93.5973,1014.33,11111222 
TABS,ioos:station:wmo:42047:1,2016-10-02T12:00:00Z,27.8966,-93.5973,1014.64,11111222 
TABS,ioos:station:wmo:42047:1,2016-10-02T12:30:00Z,27.8966,-93.5973,1014.83,11111222 
TABS,ioos:station:wmo:42047:1,2016-10-02T13:00:00Z,27.8966,-93.5973,1014.73,11111222 
TABS,ioos:station:wmo:42047:1,2016-10-02T13:30:00Z,27.8966,-93.5973,1015.29,11111222 
TABS,ioos:station:wmo:42047:1,2016-10-02T14:00:00Z,27.8966,-93.5973,1015.52,11111222 
TABS,ioos:station:wmo:42047:1,2016-10-02T14:30:00Z,27.8966,-93.5973,1015.62,11111222 
TABS,ioos:station:wmo:42047:1,2016-10-02T15:00:00Z,27.8966,-93.5973,1015.75,11111222 
TABS,ioos:station:wmo:42047:1,2016-10-02T15:30:00Z,27.8966,-93.5973,1015.77,11111222 
TABS,ioos:station:wmo:42047:1,2016-10-02T16:00:00Z,27.8966,-93.5973,1015.44,11111222 
TABS,ioos:station:wmo:42047:1,2016-10-02T16:30:00Z,27.8966,-93.5973,1015.61,11111222 
TABS,ioos:station:wmo:42047:1,2016-10-02T17:00:00Z,27.8966,-93.5973,1015.55,11111222 
TABS,ioos:station:wmo:42047:1,2016-10-02T17:30:00Z,27.8966,-93.5973,1015.41,11111222 
TABS,ioos:station:wmo:42047:1,2016-10-02T18:00:00Z,27.8966,-93.5973,1015.21,11111222 
TABS,ioos:station:wmo:42047:1,2016-10-02T18:30:00Z,27.8966,-93.5973,1014.86,11111222 
TABS,ioos:station:wmo:42047:1,2016-10-02T19:00:00Z,27.8966,-93.5973,1014.5,11111222 
TABS,ioos:station:wmo:42047:1,2016-10-02T19:30:00Z,27.8966,-93.5973,1014.19,11111222 
TABS,ioos:station:wmo:42047:1,2016-10-02T20:00:00Z,27.8966,-93.5973,1013.98,11111222 
TABS,ioos:station:wmo:42047:1,2016-10-02T20:30:00Z,27.8966,-93.5973,1013.87,11111222 
TABS,ioos:station:wmo:42047:1,2016-10-02T21:00:00Z,27.8966,-93.5973,1013.64,11111222 
TABS,ioos:station:wmo:42047:1,2016-10-02T21:30:00Z,27.8966,-93.5973,1013.57,11111222 
TABS,ioos:station:wmo:42047:1,2016-10-02T22:00:00Z,27.8966,-93.5973,1013.45,11111222 
TABS,ioos:station:wmo:42047:1,2016-10-02T22:30:00Z,27.8966,-93.5973,1013.49,11111222 
TABS,ioos:station:wmo:42047:1,2016-10-02T23:00:00Z,27.8966,-93.5973,1013.46,11111222 
TABS,ioos:station:wmo:42047:1,2016-10-02T23:30:00Z,27.8966,-93.5973,1013.6,11111222 
TABS,ioos:station:wmo:42047:1,2016-10-03T00:00:00Z,27.8966,-93.5973,1013.6,11111222 
TABS,ioos:station:wmo:42047:1,2016-10-03T00:30:00Z,27.8966,-93.5973,1013.92,11111222 
TABS,ioos:station:wmo:42047:1,2016-10-03T01:00:00Z,27.8966,-93.5973,1013.85,11111222 
TABS,ioos:station:wmo:42047:1,2016-10-03T01:30:00Z,27.8966,-93.5973,1013.91,11111222 
TABS,ioos:station:wmo:42047:1,2016-10-03T02:00:00Z,27.8966,-93.5973,1014.34,11111222 
TABS,ioos:station:wmo:42047:1,2016-10-03T02:30:00Z,27.8966,-93.5973,1014.41,11111222 
TABS,ioos:station:wmo:42047:1,2016-10-03T03:00:00Z,27.8966,-93.5973,1014.21,11111222 
TABS,ioos:station:wmo:42047:1,2016-10-03T03:30:00Z,27.8966,-93.5973,1014.02,11111222 
TABS,ioos:station:wmo:42047:1,2016-10-03T04:00:00Z,27.8966,-93.5973,1013.9,11111222 
TABS,ioos:station:wmo:42047:1,2016-10-03T04:30:00Z,27.8966,-93.5973,1013.72,11111222 
TABS,ioos:station:wmo:42047:1,2016-10-03T05:00:00Z,27.8966,-93.5973,1013.81,11111222 
TABS,ioos:station:wmo:42047:1,2016-10-03T05:30:00Z,27.8966,-93.5973,1013.51,11111222 
TABS,ioos:station:wmo:42047:1,2016-10-03T06:00:00Z,27.8966,-93.5973,1013.5,11111222 
TABS,ioos:station:wmo:42047:1,2016-10-03T06:30:00Z,27.8966,-93.5973,1013.25,11111222 
TABS,ioos:station:wmo:42047:1,2016-10-03T07:00:00Z,27.8966,-93.5973,1013.16,11111222 
TABS,ioos:station:wmo:42047:1,2016-10-03T07:30:00Z,27.8966,-93.5973,1012.9,11111222 
TABS,ioos:station:wmo:42047:1,2016-10-03T08:00:00Z,27.8966,-93.5973,1012.53,11111222 
TABS,ioos:station:wmo:42047:1,2016-10-03T08:30:00Z,27.8966,-93.5973,1012.44,11111222 
TABS,ioos:station:wmo:42047:1,2016-10-03T09:00:00Z,27.8966,-93.5973,1012.37,11111222 
TABS,ioos:station:wmo:42047:1,2016-10-03T09:30:00Z,27.8966,-93.5973,1012.21,11111222 
TABS,ioos:station:wmo:42047:1,2016-10-03T10:00:00Z,27.8966,-93.5973,1012.17,11111222 
TABS,ioos:station:wmo:42047:1,2016-10-03T10:30:00Z,27.8966,-93.5973,1012.1,11111222 
TABS,ioos:station:wmo:42047:1,2016-10-03T11:00:00Z,27.8966,-93.5973,1012.05,11111222 
TABS,ioos:station:wmo:42047:1,2016-10-03T11:30:00Z,27.8966,-93.5973,1012.28,11111222 
TABS,ioos:station:wmo:42047:1,2016-10-03T12:00:00Z,27.8966,-93.5973,1012.46,11111222 
TABS,ioos:station:wmo:42047:1,2016-10-03T12:30:00Z,27.8966,-93.5973,1012.45,11111222 
TABS,ioos:station:wmo:42047:1,2016-10-03T13:00:00Z,27.8966,-93.5973,1012.48,11111222 
TABS,ioos:station:wmo:42047:1,2016-10-03T13:30:00Z,27.8966,-93.5973,1012.72,11111222 
TABS,ioos:station:wmo:42047:1,2016-10-03T14:00:00Z,27.8966,-93.5973,1012.84,11111222 
TABS,ioos:station:wmo:42047:1,2016-10-03T14:30:00Z,27.8966,-93.5973,1012.83,11111222 
TABS,ioos:station:wmo:42047:1,2016-10-03T15:00:00Z,27.8966,-93.5973,1013.08,11111222 
TABS,ioos:station:wmo:42047:1,2016-10-03T15:30:00Z,27.8966,-93.5973,1013.09,11111222 
TABS,ioos:station:wmo:42047:1,2016-10-03T16:00:00Z,27.8966,-93.5973,1013.17,11111222 
TABS,ioos:station:wmo:42047:1,2016-10-03T16:30:00Z,27.8966,-93.5973,1013.19,11111222 
TABS,ioos:station:wmo:42047:1,2016-10-03T17:00:00Z,27.8966,-93.5973,1012.85,11111222 
TABS,ioos:station:wmo:42047:1,2016-10-03T17:30:00Z,27.8966,-93.5973,1012.58,11111222 
TABS,ioos:station:wmo:42047:1,2016-10-03T18:00:00Z,27.8966,-93.5973,1012.4,11111222 
TABS,ioos:station:wmo:42047:1,2016-10-03T18:30:00Z,27.8966,-93.5973,1012.06,11111222 
TABS,ioos:station:wmo:42047:1,2016-10-03T19:00:00Z,27.8966,-93.5973,1011.66,11111222 
TABS,ioos:station:wmo:42047:1,2016-10-03T19:30:00Z,27.8966,-93.5973,1011.14,11111222 
TABS,ioos:station:wmo:42047:1,2016-10-03T20:00:00Z,27.8966,-93.5973,1011.02,11111222 
TABS,ioos:station:wmo:42047:1,2016-10-03T20:30:00Z,27.8966,-93.5973,1010.72,11111222 
TABS,ioos:station:wmo:42047:1,2016-10-03T21:00:00Z,27.8966,-93.5973,1010.6,11111222 
TABS,ioos:station:wmo:42047:1,2016-10-03T21:30:00Z,27.8966,-93.5973,1010.32,11111222 
TABS,ioos:station:wmo:42047:1,2016-10-03T22:00:00Z,27.8966,-93.5973,1010.13,11111222 
TABS,ioos:station:wmo:42047:1,2016-10-03T22:30:00Z,27.8966,-93.5973,1010.35,11111222 
TABS,ioos:station:wmo:42047:1,2016-10-03T23:00:00Z,27.8966,-93.5973,1010.29,11111222 
TABS,ioos:station:wmo:42047:1,2016-10-03T23:30:00Z,27.8966,-93.5973,1010.23,11111222 
TABS,ioos:station:wmo:42047:1,2016-10-04T00:00:00Z,27.8966,-93.5973,1010.41,11111222 
TABS,ioos:station:wmo:42047:1,2016-10-04T00:30:00Z,27.8966,-93.5973,1010.33,11111222 
TABS,ioos:station:wmo:42047:1,2016-10-04T01:00:00Z,27.8966,-93.5973,1010.48,11111222 
TABS,ioos:station:wmo:42047:1,2016-10-04T01:30:00Z,27.8966,-93.5973,1010.56,11111222 
TABS,ioos:station:wmo:42047:1,2016-10-04T02:00:00Z,27.8966,-93.5973,1010.59,11111222 
TABS,ioos:station:wmo:42047:1,2016-10-04T02:30:00Z,27.8966,-93.5973,1010.74,11111222 
TABS,ioos:station:wmo:42047:1,2016-10-04T03:00:00Z,27.8966,-93.5973,1010.93,11111222 
TABS,ioos:station:wmo:42047:1,2016-10-04T03:30:00Z,27.8966,-93.5973,1010.89,11111222 
TABS,ioos:station:wmo:42047:1,2016-10-04T04:00:00Z,27.8966,-93.5973,1010.85,11111222 
TABS,ioos:station:wmo:42047:1,2016-10-04T04:30:00Z,27.8966,-93.5973,1010.59,11111222 
TABS,ioos:station:wmo:42047:1,2016-10-04T05:00:00Z,27.8966,-93.5973,1010.52,11111222 
TABS,ioos:station:wmo:42047:1,2016-10-04T05:30:00Z,27.8966,-93.5973,1010.23,11111222 
TABS,ioos:station:wmo:42047:1,2016-10-04T06:00:00Z,27.8966,-93.5973,1009.91,11111222 
TABS,ioos:station:wmo:42047:1,2016-10-04T06:30:00Z,27.8966,-93.5973,1010.21,11111222 
TABS,ioos:station:wmo:42047:1,2016-10-04T07:00:00Z,27.8966,-93.5973,1010.09,11111222 
TABS,ioos:station:wmo:42047:1,2016-10-04T07:30:00Z,27.8966,-93.5973,1009.96,11111222 
TABS,ioos:station:wmo:42047:1,2016-10-04T08:00:00Z,27.8966,-93.5973,1009.74,11111222 
TABS,ioos:station:wmo:42047:1,2016-10-04T08:30:00Z,27.8966,-93.5973,1009.51,11111222 
TABS,ioos:station:wmo:42047:1,2016-10-04T09:00:00Z,27.8966,-93.5973,1009.34,11111222 
TABS,ioos:station:wmo:42047:1,2016-10-04T09:30:00Z,27.8966,-93.5973,1009.37,11111222 
TABS,ioos:station:wmo:42047:1,2016-10-04T10:00:00Z,27.8966,-93.5973,1009.22,11111222 
TABS,ioos:station:wmo:42047:1,2016-10-04T10:30:00Z,27.8966,-93.5973,1009.35,11111222 
TABS,ioos:station:wmo:42047:1,2016-10-04T11:00:00Z,27.8966,-93.5973,1009.52,11111222 
TABS,ioos:station:wmo:42047:1,2016-10-04T11:30:00Z,27.8966,-93.5973,1009.59,11111222 
TABS,ioos:station:wmo:42047:1,2016-10-04T12:00:00Z,27.8966,-93.5973,1009.59,11111222 
TABS,ioos:station:wmo:42047:1,2016-10-04T12:30:00Z,27.8966,-93.5973,1009.76,11111222 
TABS,ioos:station:wmo:42047:1,2016-10-04T13:00:00Z,27.8966,-93.5973,1010.02,11111222 
TABS,ioos:station:wmo:42047:1,2016-10-04T13:30:00Z,27.8966,-93.5973,1010.21,11111222 
TABS,ioos:station:wmo:42047:1,2016-10-04T14:00:00Z,27.8966,-93.5973,1010.38,11111222 
TABS,ioos:station:wmo:42047:1,2016-10-04T14:30:00Z,27.8966,-93.5973,1010.53,11111222 
TABS,ioos:station:wmo:42047:1,2016-10-04T15:00:00Z,27.8966,-93.5973,1010.64,11111222 
TABS,ioos:station:wmo:42047:1,2016-10-04T15:30:00Z,27.8966,-93.5973,1010.78,11111222 
TABS,ioos:station:wmo:42047:1,2016-10-04T16:00:00Z,27.8966,-93.5973,1010.77,11111222 
TABS,ioos:station:wmo:42047:1,2016-10-04T16:30:00Z,27.8966,-93.5973,1010.73,11111222 
TABS,ioos:station:wmo:42047:1,2016-10-04T17:00:00Z,27.8966,-93.5973,1010.57,11111222 
TABS,ioos:station:wmo:42047:1,2016-10-04T17:30:00Z,27.8966,-93.5973,1010.02,11111222 
TABS,ioos:station:wmo:42047:1,2016-10-04T18:00:00Z,27.8966,-93.5973,1009.85,11111222 
TABS,ioos:station:wmo:42047:1,2016-10-04T18:30:00Z,27.8966,-93.5973,1009.63,11111222 
TABS,ioos:station:wmo:42047:1,2016-10-04T19:00:00Z,27.8966,-93.5973,1009.49,11111222 
TABS,ioos:station:wmo:42047:1,2016-10-04T19:30:00Z,27.8966,-93.5973,1009.3,11111222 
TABS,ioos:station:wmo:42047:1,2016-10-04T20:00:00Z,27.8966,-93.5973,1009.15,11111222 
TABS,ioos:station:wmo:42047:1,2016-10-04T20:30:00Z,27.8966,-93.5973,1009.01,11111222 
TABS,ioos:station:wmo:42047:1,2016-10-04T21:00:00Z,27.8966,-93.5973,1009.09,11111222 
TABS,ioos:station:wmo:42047:1,2016-10-04T21:30:00Z,27.8966,-93.5973,1009.08,11111222 
TABS,ioos:station:wmo:42047:1,2016-10-04T22:00:00Z,27.8966,-93.5973,1008.87,11111222 
TABS,ioos:station:wmo:42047:1,2016-10-04T22:30:00Z,27.8966,-93.5973,1008.96,11111222 
TABS,ioos:station:wmo:42047:1,2016-10-04T23:00:00Z,27.8966,-93.5973,1009.18,11111222 
TABS,ioos:station:wmo:42047:1,2016-10-04T23:30:00Z,27.8966,-93.5973,1009.49,11111222 
TABS,ioos:station:wmo:42047:1,2016-10-05T00:00:00Z,27.8966,-93.5973,1009.52,11111222 
TABS,ioos:station:wmo:42047:1,2016-10-05T00:30:00Z,27.8966,-93.5973,1009.65,11111222 
TABS,ioos:station:wmo:42047:1,2016-10-05T01:00:00Z,27.8966,-93.5973,1009.92,11111222 
TABS,ioos:station:wmo:42047:1,2016-10-05T01:30:00Z,27.8966,-93.5973,1010.23,11111222 
TABS,ioos:station:wmo:42047:1,2016-10-05T02:00:00Z,27.8966,-93.5973,1010.65,11111222 
TABS,ioos:station:wmo:42047:1,2016-10-05T02:30:00Z,27.8966,-93.5973,1010.82,11111222 
TABS,ioos:station:wmo:42047:1,2016-10-05T03:00:00Z,27.8966,-93.5973,1011.03,11111222 
TABS,ioos:station:wmo:42047:1,2016-10-05T03:30:00Z,27.8966,-93.5973,1011.19,11111222 
TABS,ioos:station:wmo:42047:1,2016-10-05T04:00:00Z,27.8966,-93.5973,1011.41,11111222 
TABS,ioos:station:wmo:42047:1,2016-10-05T04:30:00Z,27.8966,-93.5973,1011.11,11111222 
TABS,ioos:station:wmo:42047:1,2016-10-05T05:00:00Z,27.8966,-93.5973,1010.82,11111222 
TABS,ioos:station:wmo:42047:1,2016-10-05T05:30:00Z,27.8966,-93.5973,1010.76,11111222 
TABS,ioos:station:wmo:42047:1,2016-10-05T06:00:00Z,27.8966,-93.5973,1010.73,11111222 
TABS,ioos:station:wmo:42047:1,2016-10-05T06:30:00Z,27.8966,-93.5973,1010.94,11111222 
TABS,ioos:station:wmo:42047:1,2016-10-05T07:00:00Z,27.8966,-93.5973,1010.87,11111222 
TABS,ioos:station:wmo:42047:1,2016-10-05T07:30:00Z,27.8966,-93.5973,1010.65,11111222 
TABS,ioos:station:wmo:42047:1,2016-10-05T08:00:00Z,27.8966,-93.5973,1010.49,11111222 
TABS,ioos:station:wmo:42047:1,2016-10-05T08:30:00Z,27.8966,-93.5973,1010.44,11111222 
TABS,ioos:station:wmo:42047:1,2016-10-05T09:00:00Z,27.8966,-93.5973,1010.32,11111222 
TABS,ioos:station:wmo:42047:1,2016-10-05T09:30:00Z,27.8966,-93.5973,1010.62,11111222 
TABS,ioos:station:wmo:42047:1,2016-10-05T10:00:00Z,27.8966,-93.5973,1010.82,11111222 
TABS,ioos:station:wmo:42047:1,2016-10-05T10:30:00Z,27.8966,-93.5973,1011.25,11111222 
TABS,ioos:station:wmo:42047:1,2016-10-05T11:00:00Z,27.8966,-93.5973,1011.45,11111222 
TABS,ioos:station:wmo:42047:1,2016-10-05T11:30:00Z,27.8966,-93.5973,1011.63,11111222 
TABS,ioos:station:wmo:42047:1,2016-10-05T12:00:00Z,27.8966,-93.5973,1011.8,11111222 
TABS,ioos:station:wmo:42047:1,2016-10-05T12:30:00Z,27.8966,-93.5973,1011.97,11111222 
TABS,ioos:station:wmo:42047:1,2016-10-05T13:00:00Z,27.8966,-93.5973,1012.11,11111222 
TABS,ioos:station:wmo:42047:1,2016-10-05T13:30:00Z,27.8966,-93.5973,1012.07,11111222 
TABS,ioos:station:wmo:42047:1,2016-10-05T14:00:00Z,27.8966,-93.5973,1012.6,11111222 
TABS,ioos:station:wmo:42047:1,2016-10-05T14:30:00Z,27.8966,-93.5973,1013.27,11111222 
TABS,ioos:station:wmo:42047:1,2016-10-05T15:00:00Z,27.8966,-93.5973,1013.65,11111222 
TABS,ioos:station:wmo:42047:1,2016-10-05T15:30:00Z,27.8966,-93.5973,1013.46,11111222 
TABS,ioos:station:wmo:42047:1,2016-10-05T16:00:00Z,27.8966,-93.5973,1013.31,11111222 
TABS,ioos:station:wmo:42047:1,2016-10-05T16:30:00Z,27.8966,-93.5973,1013.26,11111222 
TABS,ioos:station:wmo:42047:1,2016-10-05T17:00:00Z,27.8966,-93.5973,1013.27,11111222 
TABS,ioos:station:wmo:42047:1,2016-10-05T17:30:00Z,27.8966,-93.5973,1013.22,11111222 
TABS,ioos:station:wmo:42047:1,2016-10-05T18:00:00Z,27.8966,-93.5973,1012.95,11111222 
TABS,ioos:station:wmo:42047:1,2016-10-05T18:30:00Z,27.8966,-93.5973,1012.41,11111222 
TABS,ioos:station:wmo:42047:1,2016-10-05T19:00:00Z,27.8966,-93.5973,1011.84,11111222 
TABS,ioos:station:wmo:42047:1,2016-10-05T19:30:00Z,27.8966,-93.5973,1011.77,11111222 
TABS,ioos:station:wmo:42047:1,2016-10-05T20:00:00Z,27.8966,-93.5973,1011.61,11111222 
TABS,ioos:station:wmo:42047:1,2016-10-05T20:30:00Z,27.8966,-93.5973,1011.74,11111222 
TABS,ioos:station:wmo:42047:1,2016-10-05T21:00:00Z,27.8966,-93.5973,1011.53,11111222 
TABS,ioos:station:wmo:42047:1,2016-10-05T21:30:00Z,27.8966,-93.5973,1011.44,11111222 
TABS,ioos:station:wmo:42047:1,2016-10-05T22:00:00Z,27.8966,-93.5973,1011.46,11111222 
TABS,ioos:station:wmo:42047:1,2016-10-05T22:30:00Z,27.8966,-93.5973,1011.58,11111222 
TABS,ioos:station:wmo:42047:1,2016-10-05T23:00:00Z,27.8966,-93.5973,1011.69,11111222 
TABS,ioos:station:wmo:42047:1,2016-10-05T23:30:00Z,27.8966,-93.5973,1011.88,11111222 
TABS,ioos:station:wmo:42047:1,2016-10-06T00:00:00Z,27.8966,-93.5973,1011.92,11111222 
TABS,ioos:station:wmo:42047:1,2016-10-06T00:30:00Z,27.8966,-93.5973,1012.1,11111222 
TABS,ioos:station:wmo:42047:1,2016-10-06T01:00:00Z,27.8966,-93.5973,1012.24,11111222 
TABS,ioos:station:wmo:42047:1,2016-10-06T01:30:00Z,27.8966,-93.5973,1012.57,11111222 
TABS,ioos:station:wmo:42047:1,2016-10-06T02:00:00Z,27.8966,-93.5973,1012.69,11111222 
TABS,ioos:station:wmo:42047:1,2016-10-06T02:30:00Z,27.8966,-93.5973,1012.86,11111222 
TABS,ioos:station:wmo:42047:1,2016-10-06T03:00:00Z,27.8966,-93.5973,1012.95,11111222 
TABS,ioos:station:wmo:42047:1,2016-10-06T03:30:00Z,27.8966,-93.5973,1013.12,11111222 
TABS,ioos:station:wmo:42047:1,2016-10-06T04:00:00Z,27.8966,-93.5973,1013.33,11111222 
TABS,ioos:station:wmo:42047:1,2016-10-06T04:30:00Z,27.8966,-93.5973,1013.22,11111222 
TABS,ioos:station:wmo:42047:1,2016-10-06T05:00:00Z,27.8966,-93.5973,1013.02,11111222 
TABS,ioos:station:wmo:42047:1,2016-10-06T05:30:00Z,27.8966,-93.5973,1012.81,11111222 
TABS,ioos:station:wmo:42047:1,2016-10-06T06:00:00Z,27.8966,-93.5973,1012.77,11111222 
TABS,ioos:station:wmo:42047:1,2016-10-06T06:30:00Z,27.8966,-93.5973,1012.61,11111222 
TABS,ioos:station:wmo:42047:1,2016-10-06T07:00:00Z,27.8966,-93.5973,1012.53,11111222 
TABS,ioos:station:wmo:42047:1,2016-10-06T07:30:00Z,27.8966,-93.5973,1012.34,11111222 
TABS,ioos:station:wmo:42047:1,2016-10-06T08:00:00Z,27.8966,-93.5973,1012.41,11111222 
TABS,ioos:station:wmo:42047:1,2016-10-06T08:30:00Z,27.8966,-93.5973,1012.28,11111222 
TABS,ioos:station:wmo:42047:1,2016-10-06T09:00:00Z,27.8966,-93.5973,1012.2,11111222 
TABS,ioos:station:wmo:42047:1,2016-10-06T09:30:00Z,27.8966,-93.5973,1012.3,11111222 
TABS,ioos:station:wmo:42047:1,2016-10-06T10:00:00Z,27.8966,-93.5973,1012.4,11111222 
TABS,ioos:station:wmo:42047:1,2016-10-06T10:30:00Z,27.8966,-93.5973,1012.43,11111222 
TABS,ioos:station:wmo:42047:1,2016-10-06T11:00:00Z,27.8966,-93.5973,1012.28,11111222 
TABS,ioos:station:wmo:42047:1,2016-10-06T11:30:00Z,27.8966,-93.5973,1012.6,11111222 
TABS,ioos:station:wmo:42047:1,2016-10-06T12:00:00Z,27.8966,-93.5973,1012.59,11111222 
TABS,ioos:station:wmo:42047:1,2016-10-06T12:30:00Z,27.8966,-93.5973,1012.56,11111222 
TABS,ioos:station:wmo:42047:1,2016-10-06T13:00:00Z,27.8966,-93.5973,1012.71,11111222 
TABS,ioos:station:wmo:42047:1,2016-10-06T13:30:00Z,27.8966,-93.5973,1012.69,11111222 
TABS,ioos:station:wmo:42047:1,2016-10-06T14:00:00Z,27.8966,-93.5973,1013.08,11111222 
TABS,ioos:station:wmo:42047:1,2016-10-06T14:30:00Z,27.8966,-93.5973,1013.31,11111222 
TABS,ioos:station:wmo:42047:1,2016-10-06T15:00:00Z,27.8966,-93.5973,1013.37,11111222 
TABS,ioos:station:wmo:42047:1,2016-10-06T15:30:00Z,27.8966,-93.5973,1013.47,11111222 
TABS,ioos:station:wmo:42047:1,2016-10-06T16:00:00Z,27.8966,-93.5973,1013.56,11111222 
TABS,ioos:station:wmo:42047:1,2016-10-06T16:30:00Z,27.8966,-93.5973,1013.58,11111222 
TABS,ioos:station:wmo:42047:1,2016-10-06T17:00:00Z,27.8966,-93.5973,1013.42,11111222 
TABS,ioos:station:wmo:42047:1,2016-10-06T17:30:00Z,27.8966,-93.5973,1013.31,11111222 
TABS,ioos:station:wmo:42047:1,2016-10-06T18:00:00Z,27.8966,-93.5973,1013.12,11111222 
TABS,ioos:station:wmo:42047:1,2016-10-06T18:30:00Z,27.8966,-93.5973,1012.65,11111222 